Tracking 29892 objects as of 21-Nov-2024
HD Live streaming from Space Station
objects crossing your sky now

NOAA 16 DEB

Track NOAA 16 DEB now!
10-day predictions


NORAD ID: 41059
Int'l Code: 2000-055S
Perigee: 821.2 km
Apogee: 853.5 km
Inclination: 98.7 °
Period: 101.5 minutes
Semi major axis: 7208 km
RCS: Unknown
Launch date: September 21, 2000
Source: United States (US)
Launch site: AIR FORCE WESTERN TEST RANGE (AFWTR)

Note: This is SATELLITE DEBRIS
Your satellite tracking list
Your tracking list is empty




NASA's NSSDC Master Catalog

Two Line Element Set (TLE):
1 41059U 00055S   24325.48313548  .00001440  00000-0  71459-3 0  9999
2 41059  98.6795  38.6445 0022418 136.0494 224.2470 14.18555998464605
Source of the keplerian elements: AFSPC